ONEWEB-0322 (49192 NORAD) Tracking and Keplerian Element Data

This shows tracking and keplerian element data for the satellite.

Feedback or suggestion? Click here.




ElementValue
Catalog49192
NameONEWEB-0322
Epoch Orbit366
Epoch Day287.91667824
Epoch Year2021
RAAN317.5571
Inclination87.2179
Eccentricity0.0018565
Argument of Perigee193.4118
Mean Anonmoly216.5025
Mean Motion14.930353
Decay Rate-0.01295236
L11 49192U 21083G 21287.91667824 -.01295236 00000-0 -13468+0 0 9993
L22 49192 87.2179 317.5571 0018565 193.4118 216.5025 14.93035300 3666

Live tracking and technical data element details for ONEWEB-0322 (NORAD 49192). ONEWEB-0322 can be tracked NOW for your location showing map with azimuth and elevation plus other details from your city location.

Track the satellite on the map from your city or location and see movement details for azimuth, elevation, latitude, longitude, range, height, and movement on the map or in text.







IsCatalogInMostPopularTable: catalog: 49192, numindb: 8
Update: records affected: 1



GetName: 49192 ONEWEB-0322

Hit Count: updated at: Tue, 19 Oct 2021 09:08:45 GMT